Regional Weather Roundup
Issued by NWS Green Bay, WI

Home | Current Version | Previous Version | Text Only | Print | Product List | Glossary On
Versions: 1 2 3 4 5 6 7 8 9 10 11 12 13 14 15 16 17 18 19 20 21 22 23 24 25 26 27 28 29 30 31 32 33 34 35 36 37 38 39 40 41 42 43 44 45 46 47 48 49 50
000
ASUS43 KGRB 252310
RWRGRB

NORTH-CENTRAL AND NORTHEAST WISCONSIN REGIONAL WEATHER ROUNDUP
NATIONAL WEATHER SERVICE GREEN BAY WI
500 PM CST TUE NOV 25 2014

WIZ005-009-010>012-018-019-260000-
NORTH CENTRAL WISCONSIN

CITY           SKY/WX    TMP DP  RH WIND       PRES   REMARKS
IRONWOOD       CLEAR     14   9  79 SW3       29.97R
MANITOWISH WTR CLEAR     15  11  85 SW5       29.97S WCI   7
ARBOR VITAE    CLEAR     17  12  82 CALM      29.99R
EAGLE RIVER    CLEAR     12   8  82 CALM      29.98R
LAND O LAKES   CLEAR     10   7  89 CALM      29.98S
RHINELANDER    CLEAR     11   7  84 SW5       30.00R WCI   3
PHILLIPS       PTCLDY    15  10  82 S3        30.00S
ANTIGO         CLEAR     11   8  88 SW5       30.03R WCI   3
TOMAHAWK       CLEAR     12  10  90 CALM      30.02R
MERRILL        CLEAR     17  12  82 SW6       30.04R WCI   8
$$

WIZ013-073-260000-
NORTHEAST WISCONSIN

CITY           SKY/WX    TMP DP  RH WIND       PRES   REMARKS
IRON MOUNTAIN  CLEAR     15   9  76 CALM      30.00R
MARINETTE      MOCLDY    25  16  68 W5        30.06R
OCONTO         CLOUDY    23  18  81 CALM      30.08R
$$

WIZ017-030-035>037-045-260000-
CENTRAL WISCONSIN

CITY           SKY/WX    TMP DP  RH WIND       PRES   REMARKS
MEDFORD        CLEAR     15  10  81 CALM      30.02R
WAUSAU         CLEAR     17  11  77 W5        30.05R WCI  10
MOSINEE        NOT AVBL
MARSHFIELD     CLEAR     19  11  70 W5        30.05R
WISC RAPIDS    CLEAR     17  12  80 S3        30.09R
STEVENS POINT  CLEAR     13  11  91 CALM      30.08R
WAUPACA        CLEAR     19  14  82 SW3       30.09S
SHAWANO        CLOUDY    22  17  79 SW6       30.08R
CLINTONVILLE   CLOUDY    21  16  79 W3        30.09R
$$

WIZ038-039-048-051-260000-
FOX VALLEY

CITY           SKY/WX    TMP DP  RH WIND       PRES   REMARKS
NWS GREEN BAY  CLOUDY    22  16  78 SW8       30.10R
APPLETON       CLOUDY    21  16  79 VRB5      30.09R
OSHKOSH        CLOUDY    21  15  78 SW5       30.10R
FOND DU LAC    CLOUDY    21  14  74 W7        30.12R
$$

WIZ022-050-052-260000-
EAST CENTRAL WISCONSIN

CITY           SKY/WX    TMP DP  RH WIND       PRES   REMARKS
STURGEON BAY   CLOUDY    25  16  68 SW8       30.08R
MANITOWOC      FLURRIES  22  18  85 W9        30.12R
SHEBOYGAN      CLOUDY    22  15  75 W6        30.11S
$$

LMZ563-521-522-541>543-260000-
LAKESHORE

STATION/POSITION TIME  TEMP    WIND        PRES    VSBY  WAVE
                       AIR SEA DIR/SP/G                  HT/PER
                 (UTC) (F)     (DEG/KT/KT) (MB)    (MI)  (FT/S)
SHEBOYGAN LKSHOR 2300   23 35  240/  9/ 11 1021.4R
KEWAUNEE LKSHORE 2300   23     250/  2/  6 1018.3R
TWO RIVERS CG    2200   22                 1019.5      6   1
NORTHPORT PIER   2300   26      CALM  /  6 1018.3R
N MID LAKE BUOY  2300   28 42  290/ 12/ 17 1018.6R         2/ 4
SISTER BAY LKSHO 2200          320/  6/  8   N/A
STURGEON BAY CG  2200   24     230/  4     1018.8      6   1
CHAMBERS ISLAND  2300   26     230/  3/  5 1018.3R
MENOMINEE LKSHOR 2300   26     210/  6/  8 1018.7R
$$



USA.gov is the U.S. government's official web portal to all federal, state and local government web resources and services.